Berlin, NH

9:59 AM EST on January 22, 2018 (GMT -0500)
Berlin Municipal

Weather History for KBML - May, 2012

Change the Weather History Date:

Wednesday, May 30, 2012

  Actual Average Record
Temperature  
Mean Temperature 67 °F -  
Max Temperature 77 °F 65 °F 87 °F (2015)
Min Temperature 55 °F 37 °F 28 °F (2004)
Cooling Degree Days 2    
Growing Degree Days 17 (Base 50)    
Moisture  
Dew Point 56 °F    
Average Humidity 83    
Maximum Humidity 100    
Minimum Humidity 40    
Precipitation  
Precipitation 0.13 in - - ()
Sea Level Pressure  
Sea Level Pressure 29.70 in    
Wind  
Wind Speed 1 mph (WSW)    
Max Wind Speed 12 mph    
Max Gust Speed -    
Visibility 7 miles    
Events Fog , Rain    
Averages and records for this station are not official NWS values.
T = Trace of Precipitation, MM = Missing Value Source: NWS Daily Summary

Daily Weather History Graph

Daily Weather History Graph

Search for Another Location

Airport or City:

Trip Planner

Search our weather history database for the weather conditions in past years. The results will help you decide how hot, cold, wet, or windy it might be!

Date:

Astronomy

May. 30, 2012 Rise Set
Actual Time 5:03 AM EDT 8:21 PM EDT
Civil Twilight 4:27 AM EDT 8:57 PM EDT
Nautical Twilight 3:41 AM EDT 9:43 PM EDT
Astronomical Twilight 2:43 AM EDT 10:41 PM EDT
Moon 2:45 PM EDT (5/30) 1:39 AM EDT (5/30)
Length of Visible Light 16h 29m
Length of Day
15h 17m
Waxing Gibbous, 70% of the Moon is Illuminated
May 30
Waxing Gibbous
Jun 4
Full
Jun 11
Last Quarter
Jun 19
New
Jun 26
First Quarter

Hourly Weather History & Observations

Time (EDT) Temp. Dew Point Humidity Pressure Visibility Wind Dir Wind Speed Gust Speed Precip Events Conditions
12:15 AM 59.0 °F 57.2 °F 94% 29.69 in 9.0 mi Calm Calm - N/A   Partly Cloudy
12:27 AM 57.2 °F 57.2 °F 100% 29.70 in 1.8 mi Calm Calm - N/A   Scattered Clouds
12:31 AM 60.8 °F 57.2 °F 88% 29.70 in 3.0 mi Calm Calm - N/A   Partly Cloudy
12:44 AM 59.0 °F 57.2 °F 94% 29.70 in 1.5 mi Calm Calm - N/A   Partly Cloudy
12:46 AM 57.2 °F 57.2 °F 100% 29.70 in 1.0 mi Calm Calm - N/A   Mist
12:52 AM 57.0 °F 55.9 °F 96% 29.69 in 0.5 mi Calm Calm - N/A Fog Fog
1:09 AM 57.2 °F 57.2 °F 100% 29.69 in 0.2 mi Calm Calm - N/A Fog Fog
1:19 AM 57.2 °F 57.2 °F 100% 29.70 in 0.2 mi Calm Calm - N/A Fog Fog
1:39 AM 57.2 °F 55.4 °F 94% 29.69 in 1.2 mi Calm Calm - N/A   Overcast
1:41 AM 57.2 °F 55.4 °F 94% 29.69 in 3.0 mi Calm Calm - N/A   Overcast
1:52 AM 57.0 °F 55.9 °F 96% 29.69 in 6.0 mi Calm Calm - N/A   Mostly Cloudy
2:18 AM 59.0 °F 57.2 °F 94% 29.69 in 1.8 mi Calm Calm - N/A   Overcast
2:22 AM 59.0 °F 57.2 °F 94% 29.68 in 1.2 mi Calm Calm - N/A   Overcast
2:33 AM 57.2 °F 57.2 °F 100% 29.68 in 2.0 mi Calm Calm - N/A   Overcast
2:42 AM 59.0 °F 57.2 °F 94% 29.68 in 6.0 mi Calm Calm - N/A   Overcast
2:52 AM 59.0 °F 57.9 °F 96% 29.68 in 10.0 mi Calm Calm - N/A   Overcast
3:08 AM 59.0 °F 57.2 °F 94% 29.68 in 10.0 mi South 3.5 mph - N/A   Overcast
3:52 AM 59.0 °F 57.9 °F 96% 29.67 in 10.0 mi SSW 4.6 mph - N/A   Overcast
4:18 AM 59.0 °F 57.2 °F 94% 29.67 in 10.0 mi Calm Calm - N/A   Overcast
4:52 AM 60.1 °F 57.9 °F 93% 29.68 in 10.0 mi Calm Calm - N/A   Overcast
5:52 AM 59.0 °F 57.9 °F 96% 29.70 in 10.0 mi Calm Calm - 0.02 in   Overcast
6:15 AM 60.8 °F 57.2 °F 88% 29.71 in 10.0 mi Calm Calm - N/A   Overcast
6:42 AM 60.8 °F 57.2 °F 88% 29.72 in 9.0 mi Calm Calm - N/A   Overcast
6:52 AM 61.0 °F 59.0 °F 93% 29.72 in 10.0 mi Calm Calm - N/A   Mostly Cloudy
7:01 AM 60.8 °F 59.0 °F 94% 29.73 in 10.0 mi Calm Calm - N/A   Scattered Clouds
7:52 AM 63.0 °F 60.1 °F 90% 29.73 in 10.0 mi Calm Calm - N/A   Clear
8:52 AM 64.9 °F 57.0 °F 75% 29.72 in 10.0 mi Calm Calm - N/A   Clear
9:52 AM 66.0 °F 54.0 °F 65% 29.72 in 10.0 mi West 4.6 mph - N/A   Clear
10:52 AM 70.0 °F 51.1 °F 51% 29.72 in 10.0 mi Variable 3.5 mph - N/A   Clear
11:52 AM 71.1 °F 48.9 °F 45% 29.71 in 10.0 mi West 8.1 mph - N/A   Clear
12:52 PM 73.0 °F 48.9 °F 42% 29.71 in 10.0 mi Variable 4.6 mph - N/A   Clear
1:52 PM 73.0 °F 48.9 °F 42% 29.71 in 10.0 mi West 6.9 mph - N/A   Partly Cloudy
2:52 PM 75.9 °F 51.1 °F 42% 29.69 in 10.0 mi WSW 6.9 mph - N/A   Scattered Clouds
3:52 PM 77.0 °F 51.1 °F 40% 29.67 in 10.0 mi Calm Calm - N/A   Scattered Clouds
4:52 PM 73.0 °F 53.1 °F 49% 29.68 in 10.0 mi SW 3.5 mph - N/A   Overcast
5:52 PM 64.9 °F 59.0 °F 81% 29.69 in 10.0 mi SSE 4.6 mph - 0.00 in Rain Light Rain
6:52 PM 69.1 °F 57.9 °F 68% 29.70 in 10.0 mi SE 3.5 mph - 0.00 in   Clear
7:52 PM 66.0 °F 59.0 °F 78% 29.71 in 10.0 mi Calm Calm - N/A   Overcast
8:52 PM 63.0 °F 59.0 °F 87% 29.70 in 10.0 mi Calm Calm - N/A   Overcast
9:52 PM 63.0 °F 59.0 °F 87% 29.74 in 10.0 mi North 5.8 mph - N/A   Overcast
10:52 PM 61.0 °F 55.9 °F 83% 29.76 in 10.0 mi NNW 6.9 mph - 0.00 in Rain Light Rain
11:03 PM 59.0 °F 55.4 °F 88% 29.76 in 1.8 mi NNE 5.8 mph - 0.10 in Rain Heavy Rain
11:11 PM 57.2 °F 55.4 °F 94% 29.73 in 3.0 mi ENE 11.5 mph - 0.11 in Rain Light Rain
11:52 PM 55.9 °F 54.0 °F 93% 29.74 in 10.0 mi Calm Calm - 0.11 in   Mostly Cloudy